Change the Weather History Date:

Thursday, December 13, 2012

  Actual Average Record
Temperature  
Mean Temperature 47 °F 47 °F  
Max Temperature 61 °F 57 °F 74 °F (1975)
Min Temperature 33 °F 37 °F -2 °F (1962)
Degree Days  
Heating Degree Days 18 18  
Month to date heating degree days 101 218  
Since 1 July heating degree days 587 662  
Moisture  
Dew Point 34 °F    
Average Humidity 63    
Maximum Humidity 86    
Minimum Humidity 39    
Precipitation  
Precipitation 0.00 in 0.16 in 2.24 in (2001)
Month to date precipitation 1.89 2.07  
Year to date precipitation 49.84 51.95  
Snow  
Snow 0.00 in - - ()
Month to date snowfall 0.0  
Since 1 July snowfall 0.0  
Snow Depth 0.00 in    
Sea Level Pressure  
Sea Level Pressure 30.31 in    
Wind  
Wind Speed 1 mph (East)    
Max Wind Speed 7 mph    
Max Gust Speed 13 mph    
Visibility 10 miles    
Events      
T = Trace of Precipitation, MM = Missing Value Source: NWS Daily Summary

Daily Weather History Graph

Daily Weather History Graph

Search for Another Location

Airport or City:

Trip Planner

Search our weather history database for the weather conditions in past years. The results will help you decide how hot, cold, wet, or windy it might be!

Date:

Astronomy

Dec. 13, 2012 Rise Set
Actual Time 6:42 AM CST 4:41 PM CST
Civil Twilight 6:14 AM CST 5:08 PM CST
Nautical Twilight 5:43 AM CST 5:39 PM CST
Astronomical Twilight 5:13 AM CST 6:09 PM CST
Moon 6:51 AM CST (12/13) 5:21 PM CST (12/13)
Length of Visible Light 10h 53m
Length of Day
9h 58m
New Moon, 0% of the Moon is Illuminated
Dec 13
New Moon
Dec 19
First Quarter
Dec 28
Full
Jan 4
Last Quarter
Jan 11
New

Hourly Weather History & Observations

Time (CST) Temp. Windchill Dew Point Humidity Pressure Visibility Wind Dir Wind Speed Gust Speed Precip Events Conditions
12:53 AM 37.9 °F - 28.0 °F 68% 30.29 in 10.0 mi Calm Calm - N/A   Clear
1:53 AM 36.0 °F - 30.0 °F 79% 30.28 in 10.0 mi Calm Calm - N/A   Clear
2:53 AM 35.1 °F - 28.9 °F 78% 30.29 in 10.0 mi Calm Calm - N/A   Clear
3:53 AM 36.0 °F - 30.0 °F 79% 30.29 in 10.0 mi Calm Calm - N/A   Clear
4:53 AM 35.1 °F - 30.0 °F 82% 30.31 in 10.0 mi Calm Calm - N/A   Clear
5:53 AM 34.0 °F - 28.9 °F 82% 30.33 in 10.0 mi Calm Calm - N/A   Clear
6:53 AM 33.1 °F - 28.9 °F 85% 30.35 in 10.0 mi Calm Calm - N/A   Clear
7:53 AM 39.0 °F - 30.9 °F 73% 30.36 in 10.0 mi Calm Calm - N/A   Clear
8:53 AM 45.0 °F 42.6 °F 30.9 °F 58% 30.37 in 10.0 mi ENE 4.6 mph - N/A   Clear
9:53 AM 50.0 °F - 36.0 °F 59% 30.38 in 10.0 mi East 6.9 mph - N/A   Clear
10:53 AM 53.1 °F - 37.9 °F 57% 30.36 in 10.0 mi East 4.6 mph - N/A   Clear
11:53 AM 55.9 °F - 37.0 °F 49% 30.32 in 10.0 mi Calm Calm - N/A   Clear
12:53 PM 59.0 °F - 37.0 °F 44% 30.30 in 10.0 mi Variable 3.5 mph - N/A   Clear
1:53 PM 60.1 °F - 35.1 °F 39% 30.30 in 10.0 mi Variable 4.6 mph - N/A   Clear
2:53 PM 60.1 °F - 35.1 °F 39% 30.28 in 10.0 mi Calm Calm - N/A   Clear
3:53 PM 59.0 °F - 36.0 °F 42% 30.27 in 10.0 mi Calm Calm - N/A   Clear
5:53 PM 46.9 °F - 39.0 °F 74% 30.28 in 10.0 mi Calm Calm - N/A   Clear
6:53 PM 44.1 °F - 39.0 °F 82% 30.31 in 10.0 mi Calm Calm - N/A   Clear
7:53 PM 42.1 °F - 37.9 °F 85% 30.31 in 10.0 mi Calm Calm - N/A   Clear
8:53 PM 41.0 °F - 37.0 °F 86% 30.31 in 10.0 mi Calm Calm - N/A   Clear
9:53 PM 39.0 °F - 36.0 °F 89% 30.31 in 10.0 mi Calm Calm - N/A   Clear
10:53 PM 39.0 °F - 35.1 °F 86% 30.32 in 10.0 mi Calm Calm - N/A   Clear
11:53 PM 37.9 °F - 35.1 °F 89% 30.32 in 10.0 mi Calm Calm - N/A   Clear